AQI (39)

Current Conditions for Foresthill, CA. Clear skies, Dry   
Visibility: 10 miles
Space WX Alerts: CONTINUED ALERT:  Electron 2MeV Integral Flux exceeded 1000pfu ( Latest Alert ) - Issue Time: 2018 Dec 13 1208 UTC

  Summary / Temperature 

Current Temperature
44.1°F
6.7°C
(24/hr Ago)
43.3°F
(Apparent temp)
38.9°F
Cool
Wind Chill Graphs
39.6°F 
Wind Chill-Avg
43.4°F 6.3°C
 --- Virtual Temp: 45.4°F ---

 Temp Rate:

 24/hr Difference:

 Avg Running Temp:

 Todays High:

 Todays Low:

 Y-days High:

 Y-days Low:

 Todays WChill:

 Y-days WChill:

 Evapotranspiration:

-0.6°F/hr 

+0.8°F

44.3°F

44.2°F 12:39am

43.8°F 12:29am

52.5°F 2:06pm

39.7°F 7:27am

36.4°F 12:30am

33.3°F 2:54am

0.001 in

115' Above Ground

 Temperature:

 6'AGL VRS 115'AGL:

 Avg Running Temp:

 Humidity:

 Todays High:

 Todays Low:

 Y-days High:

 Y-days Low:

48.0°F 

+3.9°F

49.2°F

46% 

50.0°F 12:00am

48.0°F 12:43am

59.0°F 3:05pm

44.0°F 2:44am

Temp & Humidity Graphs

  Wind 

Wind Speed

 Calm

Gusting to

 15.0 mph

Wind from E

101°  E

Calm

 Avg speed:

 Wind Run:

 Peak Gust:

  3.0 mph 

2.0 miles

  16.0 mph 12:24am

  Almanac  

Moon age: 6 days,8 hours,56 minutes,39%

Waxing Crescent
39%
Illuminated
6 days in cycle

 Moonrise:

 Moonset:

 Sunrise:

 Sunset:

 Solar Noon:

12:13pm

11:37pm

7:13am

4:40pm

11:58am

0min 33s less daylight tomorrow 

  Solar Radiation 

(Current Solar)
  No Sun Light
(Todays High)
 None@12:00am

Rain

 Rain Today:

 Rain Rate (/hr):

 Rain last hour:

 Rain Yesterday:

 This Month:

 Season Total:

8 Days Since Last Rain Day

0.00 in

0.000 in

0.00 in

0.00 in

1.05 in

9.55 in

Updated Time

Updated: 12/14/18  1:00am

(Updated  sec ago)

Humidity & Barometer

 Humidity:

 Wetbulb:

 Dew Point:

 Barometer:

63% 

39.4°F 

32.3°F 

30.198 inHg 

 Baro Trend:  Steady 
Northern Calif
Preparedness
Fire 
Level 

    UV Index  

(Current UV)
0.0  None
(Todays High) @ 12:00am
0.0   None

National Weather Service Forecast

Overnight

Overnight: Partly Cloudy
Partly Cloudy
Friday

Friday: Mostly Cloudy then Chance Rain Showers
Mostly Cloudy
Friday
Night
Friday Night: Chance Rain Showers
Chance Rain Showers
Saturday

Saturday: Slight Chance Rain Showers then Partly Sunny
Slight Chance Rain Showers
Saturday
Night
Saturday Night: Mostly Cloudy
Mostly Cloudy
Sunday

Sunday: Rain Showers
Rain Showers
Lo 42 °F Hi 52 °F ↓ Lo 44 °F Hi 52 °F Lo 45 °F Hi 54 °F

Foresthill Probe 2 Stats  
Foresthill Probe 2: is located on Thomas Street
at 3000 feet. The main Foresthill Weather site
is located on Melody ln at the 2860 foot elevation

Light Air
43.0°F
6.1°C
Temp Rate:
-0.5°F
1.0 mph
Gusting to
3.0 mph
(Humidity)
66%
Wind from SSE
148°  SSE
Updated: 14/12/18 - 00:55:34
 Todays High: 43.6°F 00:13
 Todays Low: 43.0°F 00:53
 Rain Today: 0.00 in
 Season Total: 9.72 in

Foresthill Wx: Monthly,Yearly, Highs and Lows 

Foresthill  
This Weather Data is coming from the main Foresthill
Weather site located on Melody ln at the 2860 foot
elevation
Not Foresthill Probe 2
Weather Data
Month
  High
Month
  Low
Year
High
Year
Low
Temp 53.8°F
12/12/18
31.7°F
12/2/18
93.9°F
8/10/18
21.9°F
2/23/18
Humidity 100%
12/1/18
43%
12/13/18
100%
1/8/18
9%
10/15/18
Heat Index 55.8°F
12/12/18
36.0°F
12/3/18
93.3°F
7/25/18
27.1°F
2/20/18
Wind Chill 53.8°F
12/12/18
19.7°F
12/3/18
93.9°F
8/10/18
9.2°F
2/23/18
Wind Gust 25 mph
12/1/18
0 mph
12/1/18
43 mph
3/1/18
0 mph
1/1/18
Barometer 30.41 in
12/9/18
29.92 in
12/5/18
30.55 in
1/27/18
29.53 in
11/29/18
ET 0.06 in
12/13/18
0.00 in
12/1/18
0.25 in
6/24/18
0.00 in
1/1/18
Dew Point 44.0°F
12/8/18
24.3°F
12/13/18
66.9°F
7/24/18
0.7°F
11/8/18
Pacific Satellite US Radar Satellite Imagery Sacramento,CA.  (click to enlarge)
NWS Weather Forecast - Summary
Updated: Thursday, December 13, 2018 - 1:59pm PST
Current Interstate Highway Conditions for I-80 & US-50

[I 80: IN THE SAN FRANCISCO BAY AREA - SOLANO CO]
no traffic restrictions are reported for this area.

[I 80: IN THE NORTHERN CALIFORNIA AREA & SIERRA NEVADA]
no traffic restrictions are reported for this area.

[US 50: IN THE SACRAMENTO VALLEY & THE LAKE TAHOE BASIN]
the eastbound connector to northbound sr 99 /in sacramento/ (sacramento co)   Is closed from 11:00pm each night to 5:00am each morning wednesday thru saturday thru 12/15/18 - due to construction - a detour is available
the westbound connector to southbound sr 99 /in sacramento/ (sacramento co)   Is closed from 11:00pm each night to 5:00am each morning 7 days a week thru 12/15/18 - due to construction - a detour is available
NWS Weather Forecast: Overnight and Friday (Updated: Thu, 13-Dec-2018 1:39pm PST)
Overnight

Overnight: Partly Cloudy
Partly Cloudy

Lo 42 °F
NWS forecast: Partly cloudy, with a low around 42. East southeast wind around 7 mph.
Friday

Friday: Mostly Cloudy then Chance Rain Showers
Mostly Cloudy

Hi 52 °F ↓
NWS forecast: A chance of rain showers after 4pm. Mostly cloudy. High near 52, with temperatures falling to around 49 in the afternoon. South southeast wind 5 to 14 mph, with gusts as high as 22 mph. Chance of precipitation is 50%. New rainfall amounts less than a tenth of an inch possible.
YR.NO 10 Day Weather forecast
Last update: 12/13/2018 @ 11:30
Next update: 12/14/2018 @ 00:00
Provided by: 22
      Temperature Precipitation Pressure Wind  
Tomorrow
12/13/2018
22:00 00:00 34°F   30.17 inHg Light breeze from east-northeast 4 mph
    (Click to enlarge)
meteogram

    Forecast for next 9 days

      Temperature Precip Pressure Wind  
Today 00:00 06:00 37°F   30.15 inHg Light breeze from east 7 mph
  06:00 12:00 41°F   30.07 inHg Light breeze from east 6 mph
  12:00 18:00 50°F   30.12 inHg Light breeze from south-southwest 6 mph
  18:00 00:00 45°F   30.13 inHg Light air from south-southeast 3 mph
      Temperature Precip Pressure Wind  
Saturday
12/15/2018
00:00 06:00 43°F   30.15 inHg Light breeze from east 5 mph
  06:00 12:00 36°F   30.12 inHg Light breeze from east-northeast 5 mph
  12:00 18:00 54°F   30.08 inHg Light breeze from south-southeast 6 mph
  18:00 00:00 43°F   30.09 inHg Light breeze from east-northeast 5 mph
      Temperature Precip Pressure Wind  
Sunday
12/16/2018
00:00 06:00 37°F   30.11 inHg Light breeze from east 6 mph
  04:00 10:00 36°F   30.11 inHg Light breeze from east 6 mph
  10:00 16:00 50°F   30.10 inHg Light breeze from south-southeast 6 mph
  16:00 22:00 50°F 0.26 in 30.01 inHg Gentle breeze from south-southeast 8 mph
  22:00 04:00 43°F 0.87 in 30.03 inHg Gentle breeze from southeast 11 mph
      Temperature Precip Pressure Wind  
Monday
12/17/2018
04:00 10:00 41°F 0.29 in 30.08 inHg Light breeze from southeast 7 mph
  10:00 16:00 43°F 0.07 in 30.17 inHg Light breeze from south-southeast 5 mph
  16:00 22:00 43°F   30.17 inHg Light air from east-northeast 1 mph
  22:00 04:00 32°F   30.25 inHg Light breeze from east-northeast 4 mph
      Temperature Precip Pressure Wind  
Tuesday
12/18/2018
04:00 10:00 28°F   30.26 inHg Light breeze from east-northeast 4 mph
  10:00 16:00 46°F   30.32 inHg Light air from north-northeast 1 mph
  16:00 22:00 46°F   30.27 inHg Light air from west 3 mph
  22:00 04:00 36°F   30.30 inHg Light air from east-northeast 3 mph
      Temperature Precip Pressure Wind  
Wednesday
12/19/2018
04:00 10:00 32°F   30.28 inHg Light breeze from east-northeast 5 mph
  10:00 16:00 52°F   30.29 inHg Calm from east 0 mph
  16:00 22:00 50°F   30.23 inHg Light air from west-southwest 2 mph
  22:00 04:00 36°F   30.19 inHg Light breeze from east-northeast 5 mph
      Temperature Precip Pressure Wind  
Thursday
12/20/2018
04:00 10:00 30°F   30.16 inHg Light air from east-northeast 3 mph
  10:00 16:00 55°F   30.18 inHg Light air from east-southeast 1 mph
  16:00 22:00 54°F   30.12 inHg Light air from south-southeast 2 mph
  22:00 04:00 37°F   30.14 inHg Light breeze from east-northeast 5 mph
      Temperature Precip Pressure Wind  
Friday
12/21/2018
04:00 10:00 36°F   30.13 inHg Light breeze from east-northeast 4 mph
  10:00 16:00 54°F   30.15 inHg Light air from east 2 mph
  16:00 22:00 50°F   30.10 inHg Light air from west-southwest 2 mph
  22:00 04:00 37°F   30.09 inHg Light breeze from east-northeast 4 mph
      Temperature Precip Pressure Wind  
Saturday
12/22/2018
04:00 10:00 34°F   30.09 inHg Light breeze from east-northeast 4 mph
  10:00 16:00 52°F   30.09 inHg Light air from east 2 mph
  16:00 22:00 52°F   30.07 inHg Light air from west-southwest 2 mph
  22:00 04:00 39°F   30.06 inHg Light breeze from east-northeast 6 mph
How Close Are We To this Month's Temperature Record ?
Updated Friday, Dec 14, 2018- 12:55:01 AM

Current Temperature: 44.1°F

December's High: Temperature Record 65.8°F - Set on Tue, Dec 17, 2013 - 1:22:00 PM
We are currently 21.7°F Less than this Month's record High

December's Low: Temperature Record 20.2°F - Set on Sun, Dec 8, 2013 - 7:26:00 AM
We are currently 23.9°F More than this Month's record Low

Weather History For Friday, December 14, 2018


On this Day - In Weather History ...
Data courtesy of weatherforyou.com
powered by Cumulus v1.9.3 (1059)
Ambient Weather VWS v14.00
Top Contact Website Map Copyright © 2007 - 2018 Foresthillweather.com Never base important decisions on this or any weather information obtained from the Internet